| time (UTC) | temp C | wind direction | speed KPH | gust KPH | rain 1hr cm | rain 24hr cm | rain mn cm | humidity % | barometer mb |
| 20260510091918 | 18 | 217 | 8.0 | 14.5 | 0.00 | 0.84 | 0.03 | 1012.3 | |
| 20260510090909 | 18 | 212 | 11.3 | 9.7 | 0.00 | 0.84 | 0.03 | 1012.3 | |
| 20260510085859 | 18 | 245 | 9.7 | 12.9 | 0.00 | 0.84 | 0.03 | 1012.4 | |
| 20260510084857 | 17 | 312 | 4.8 | 3.2 | 0.00 | 0.84 | 0.03 | 1012.4 | |
| 20260510083858 | 17 | 172 | 4.8 | 3.2 | 0.00 | 0.84 | 0.03 | 1012.5 | |
| 20260510082832 | 16 | 148 | 4.8 | 1.6 | 0.00 | 0.84 | 0.03 | 1012.6 | |
| 20260510081826 | 16 | 311 | 3.2 | 4.8 | 0.00 | 0.84 | 0.03 | 1012.6 | |
| 20260510080816 | 15 | 17 | 4.8 | 4.8 | 0.00 | 0.84 | 0.03 | 1012.6 | |
| 20260510075759 | 15 | 328 | 8.0 | 6.4 | 0.00 | 0.84 | 0.03 | 1012.5 | |
| 20260510074749 | 15 | 298 | 4.8 | 6.4 | 0.00 | 0.84 | 0.03 | 1012.5 | |
| 20260510073743 | 15 | 288 | 6.4 | 6.4 | 0.00 | 0.84 | 0.03 | 1012.3 | |
| 20260510072720 | 14 | 314 | 3.2 | 6.4 | 0.00 | 0.84 | 0.03 | 1012.4 | |
| 20260510071723 | 13 | 333 | 8.0 | 6.4 | 0.00 | 0.84 | 0.03 | 1012.4 | |
| 20260510070725 | 13 | 21 | 6.4 | 4.8 | 0.00 | 0.84 | 0.03 | 1012.5 | |
| 20260510065653 | 13 | 307 | 6.4 | 8.0 | 0.00 | 0.84 | 0.03 | 1012.6 | |
| 20260510064654 | 13 | 345 | 1.6 | 3.2 | 0.00 | 0.84 | 0.03 | 1012.5 | |
| 20260510063646 | 12 | 353 | 8.0 | 4.8 | 0.00 | 0.84 | 0.03 | 1012.5 | |
| 20260510062644 | 12 | 343 | 8.0 | 4.8 | 0.00 | 0.84 | 0.03 | 1012.5 | |
| 20260510061645 | 12 | 297 | 8.0 | 8.0 | 0.00 | 0.84 | 0.03 | 1012.4 | |
| 20260510060627 | 12 | 345 | 0.0 | 0.0 | 0.00 | 0.84 | 0.03 | 1012.2 | |
| 20260510055628 | 11 | 345 | 0.0 | 0.0 | 0.00 | 0.84 | 0.03 | 1012.2 | |
| 20260510054549 | 11 | 345 | 0.0 | 0.0 | 0.03 | 0.84 | 0.03 | 1012.3 | |
| 20260510053550 | 11 | 345 | 0.0 | 0.0 | 0.03 | 0.84 | 0.03 | 1012.2 | |
| 20260510052547 | 11 | 345 | 0.0 | 0.0 | 0.03 | 0.84 | 0.03 | 1012.0 | |
| 20260510051549 | 10 | 345 | 0.0 | 0.0 | 0.03 | 0.84 | 0.03 | 1012.1 | |
| 20260510050546 | 11 | 345 | 0.0 | 0.0 | 0.03 | 0.84 | 0.03 | 1012.3 | |
| 20260510045546 | 11 | 345 | 0.0 | 0.0 | 0.03 | 0.84 | 0.03 | 1012.3 | |
| 20260510044539 | 11 | 345 | 0.0 | 0.0 | 0.00 | 0.84 | 0.03 | 1012.2 | |
| 20260510043521 | 11 | 345 | 0.0 | 0.0 | 0.00 | 0.84 | 0.03 | 1012.5 | |
| 20260510042521 | 11 | 345 | 0.0 | 0.0 | 0.00 | 0.84 | 0.03 | 1012.5 | |
| 20260510041524 | 11 | 345 | 0.0 | 0.0 | 0.00 | 0.84 | 0.00 | 1012.3 | |
| 20260510040511 | 11 | 345 | 0.0 | 0.0 | 0.00 | 0.84 | 0.00 | 1012.4 | |
| 20260510035503 | 11 | 345 | 0.0 | 0.0 | 0.00 | 0.84 | 0.00 | 1012.4 | |
| 20260510034457 | 11 | 345 | 0.0 | 0.0 | 0.00 | 0.84 | 0.00 | 1012.4 | |
| 20260510033453 | 11 | 345 | 0.0 | 0.0 | 0.00 | 0.84 | 0.00 | 1012.5 | |
| 20260510032450 | 11 | 345 | 0.0 | 0.0 | 0.00 | 0.84 | 0.00 | 1012.4 | |
| 20260510031445 | 11 | 345 | 0.0 | 0.0 | 0.00 | 0.84 | 0.00 | 1012.4 | |
| 20260510030445 | 11 | 345 | 0.0 | 0.0 | 0.00 | 0.84 | 0.00 | 1012.4 | |
| 20260510025448 | 11 | 345 | 0.0 | 0.0 | 0.00 | 0.84 | 0.00 | 1012.5 | |
| 20260510024448 | 12 | 345 | 0.0 | 0.0 | 0.00 | 0.84 | 0.00 | 1012.6 | |
| 20260510023450 | 11 | 345 | 0.0 | 0.0 | 0.00 | 0.84 | 0.00 | 1012.6 | |
| 20260510022453 | 11 | 345 | 0.0 | 0.0 | 0.00 | 0.84 | 0.00 | 1012.8 | |
| 20260510021436 | 12 | 345 | 0.0 | 0.0 | 0.00 | 0.84 | 0.00 | 1012.8 | |
| 20260510020433 | 12 | 345 | 0.0 | 0.0 | 0.00 | 0.84 | 0.00 | 1012.8 | |
| 20260510015431 | 12 | 345 | 0.0 | 0.0 | 0.00 | 0.84 | 0.00 | 1012.7 | |
| 20260510014431 | 12 | 345 | 0.0 | 0.0 | 0.00 | 0.84 | 0.00 | 1012.7 | |
| 20260510013432 | 12 | 302 | 0.0 | 0.0 | 0.00 | 0.84 | 0.00 | 1012.6 | |
| 20260510012433 | 12 | 302 | 0.0 | 0.0 | 0.00 | 0.84 | 0.00 | 1012.4 | |
| 20260510011435 | 12 | 304 | 0.0 | 0.0 | 0.00 | 0.84 | 0.00 | 1012.4 | |
| 20260510010432 | 12 | 304 | 0.0 | 0.0 | 0.00 | 0.84 | 0.00 | 1012.5 | |
| 20260510005426 | 12 | 311 | 0.0 | 0.0 | 0.00 | 0.84 | 0.00 | 1012.5 | |
| 20260510004429 | 12 | 326 | 6.4 | 6.4 | 0.00 | 0.84 | 0.00 | 1012.7 | |
| 20260510003431 | 12 | 38 | 0.0 | 0.0 | 0.00 | 0.84 | 0.00 | 1012.7 | |
| 20260510002429 | 12 | 38 | 0.0 | 0.0 | 0.00 | 0.84 | 0.00 | 1012.8 | |
| 20260510001432 | 12 | 38 | 0.0 | 0.0 | 0.00 | 0.84 | 0.00 | 1012.9 | |
| 20260510000426 | 12 | 38 | 0.0 | 0.0 | 0.00 | 0.84 | 0.00 | 1012.9 | |
| 20260509235415 | 12 | 38 | 0.0 | 0.0 | 0.00 | 0.84 | 0.00 | 1013.2 | |
| 20260509234416 | 12 | 38 | 0.0 | 0.0 | 0.00 | 0.84 | 0.00 | 1013.4 | |
| 20260509233417 | 12 | 38 | 0.0 | 0.0 | 0.00 | 0.84 | 0.00 | 1013.4 | |
| 20260509232415 | 12 | 38 | 0.0 | 0.0 | 0.00 | 0.84 | 0.00 | 1013.3 | |
| 20260509231417 | 12 | 38 | 0.0 | 0.0 | 0.00 | 0.84 | 0.00 | 1013.4 | |
| 20260509230420 | 13 | 38 | 0.0 | 0.0 | 0.00 | 0.84 | 0.00 | 1013.3 | |
| 20260509225416 | 13 | 38 | 0.0 | 0.0 | 0.00 | 0.84 | 0.00 | 1013.4 | |
| 20260509224411 | 13 | 38 | 0.0 | 0.0 | 0.00 | 0.84 | 0.00 | 1013.4 | |
| 20260509223414 | 13 | 38 | 0.0 | 0.0 | 0.00 | 0.84 | 0.00 | 1013.4 | |
| 20260509222412 | 13 | 38 | 0.0 | 0.0 | 0.00 | 0.84 | 0.00 | 1013.4 | |
| 20260509221409 | 13 | 84 | 0.0 | 0.0 | 0.00 | 0.84 | 0.00 | 1013.3 | |
| 20260509220412 | 14 | 84 | 0.0 | 0.0 | 0.00 | 0.84 | 0.00 | 1013.3 | |
| 20260509215410 | 14 | 304 | 0.0 | 0.0 | 0.00 | 0.00 | 0.84 | 1013.3 | |
| 20260509214413 | 14 | 304 | 0.0 | 0.0 | 0.00 | 0.00 | 0.84 | 1013.3 | |
| 20260509213347 | 14 | 304 | 0.0 | 0.0 | 0.00 | 0.00 | 0.84 | 1013.4 | |
| 20260509212347 | 14 | 304 | 0.0 | 0.0 | 0.00 | 0.00 | 0.84 | 1013.2 | |
| 20260509211339 | 14 | 319 | 1.6 | 0.0 | 0.00 | 0.00 | 0.84 | 1013.2 | |
| 20260509210340 | 14 | 290 | 0.0 | 0.0 | 0.00 | 0.00 | 0.84 | 1013.2 | |
| 20260509205338 | 13 | 290 | 0.0 | 0.0 | 0.00 | 0.00 | 0.84 | 1012.9 | |
| 20260509204323 | 13 | 291 | 3.2 | 1.6 | 0.00 | 0.00 | 0.84 | 1012.9 | |
| 20260509203325 | 13 | 342 | 0.0 | 0.0 | 0.00 | 0.00 | 0.84 | 1012.7 | |
| 20260509202322 | 14 | 304 | 3.2 | 3.2 | 0.00 | 0.00 | 0.84 | 1012.5 | |
| 20260509201312 | 13 | 252 | 3.2 | 3.2 | 0.00 | 0.00 | 0.84 | 1012.4 | |
| 20260509194314 | 14 | 66 | 1.6 | 1.6 | 0.00 | 0.00 | 0.84 | 1011.7 | |
| 20260509193313 | 14 | 25 | 0.0 | 0.0 | 0.00 | 0.00 | 0.84 | 1011.7 | |
| 20260509192315 | 14 | 25 | 0.0 | 0.0 | 0.00 | 0.00 | 0.84 | 1011.6 | |
| 20260509191259 | 14 | 25 | 0.0 | 0.0 | 0.00 | 0.00 | 0.84 | 1011.5 | |
| 20260509190246 | 14 | 82 | 3.2 | 1.6 | 0.00 | 0.00 | 0.84 | 1011.3 | |
| 20260509185249 | 14 | 129 | 4.8 | 1.6 | 0.08 | 0.00 | 0.84 | 1011.2 | |
| 20260509184243 | 14 | 159 | 4.8 | 8.0 | 0.08 | 0.00 | 0.84 | 1011.0 | |
| 20260509183243 | 14 | 141 | 4.8 | 6.4 | 0.08 | 0.00 | 0.84 | 1010.5 | |
| 20260509182231 | 15 | 24 | 0.0 | 0.0 | 0.08 | 0.00 | 0.84 | 1010.3 | |
| 20260509181149 | 14 | 24 | 3.2 | 0.0 | 0.08 | 0.00 | 0.84 | 1010.1 | |
| 20260509175040 | 15 | 79 | 3.2 | 3.2 | 0.33 | 0.00 | 0.84 | 1010.1 | |
| 20260509173936 | 14 | 35 | 11.3 | 3.2 | 0.33 | 0.00 | 0.84 | 1009.9 | |
| 20260509172510 | 14 | 359 | 9.7 | 11.3 | 0.33 | 0.00 | 0.84 | 1009.6 | |
| 20260509171443 | 14 | 15 | 4.8 | 6.4 | 0.33 | 0.00 | 0.81 | 1009.7 | |
| 20260509170444 | 14 | 318 | 6.4 | 9.7 | 0.33 | 0.00 | 0.79 | 1010.1 | |
| 20260509165443 | 14 | 343 | 4.8 | 4.8 | 0.36 | 0.00 | 0.76 | 1010.8 | |
| 20260509164434 | 14 | 330 | 0.0 | 0.0 | 0.36 | 0.00 | 0.71 | 1011.3 | |
| 20260509163419 | 14 | 350 | 4.8 | 8.0 | 0.36 | 0.00 | 0.66 | 1011.7 | |
| 20260509162422 | 15 | 6 | 4.8 | 6.4 | 0.36 | 0.00 | 0.58 | 1012.0 | |
| 20260509161416 | 15 | 53 | 4.8 | 3.2 | 0.36 | 0.00 | 0.53 | 1012.4 | |
| 20260509160419 | 14 | 207 | 0.0 | 0.0 | 0.36 | 0.00 | 0.51 | 1012.7 | |
| 20260509155419 | 14 | 228 | 4.8 | 1.6 | 0.08 | 0.00 | 0.43 | 1012.7 | |
| 20260509154416 | 14 | 193 | 9.7 | 3.2 | 0.08 | 0.00 | 0.36 | 1012.6 | |
| 20260509153419 | 15 | 231 | 9.7 | 6.4 | 0.08 | 0.00 | 0.30 | 1012.7 | |
| 20260509152358 | 15 | 239 | 11.3 | 14.5 | 0.08 | 0.00 | 0.20 | 1012.6 | |
| 20260509151356 | 15 | 236 | 14.5 | 14.5 | 0.08 | 0.00 | 0.15 | 1011.5 | |
| 20260509150318 | 16 | 136 | 3.2 | 0.0 | 0.08 | 0.00 | 0.10 | 1010.2 | |
| 20260509145259 | 16 | 72 | 4.8 | 11.3 | 0.00 | 0.00 | 0.08 | 1010.0 | |
| 20260509144258 | 15 | 117 | 4.8 | 3.2 | 0.00 | 0.00 | 0.08 | 1010.0 | |
| 20260509143237 | 16 | 76 | 1.6 | 6.4 | 0.00 | 0.00 | 0.08 | 1010.3 | |
| 20260509142227 | 16 | 96 | 6.4 | 4.8 | 0.00 | 0.00 | 0.05 | 1010.5 | |
| 20260509141155 | 16 | 89 | 6.4 | 6.4 | 0.00 | 0.00 | 0.00 | 1010.9 | |
| 20260509140146 | 17 | 122 | 11.3 | 9.7 | 0.00 | 0.00 | 0.00 | 1011.2 | |
| 20260509135148 | 18 | 138 | 8.0 | 8.0 | 0.00 | 0.00 | 0.00 | 1011.6 | |
| 20260509134151 | 18 | 188 | 8.0 | 6.4 | 0.00 | 0.00 | 0.00 | 1011.6 | |
| 20260509133146 | 18 | 131 | 11.3 | 4.8 | 0.00 | 0.00 | 0.00 | 1012.0 | |
| 20260509132149 | 18 | 159 | 6.4 | 6.4 | 0.00 | 0.00 | 0.00 | 1011.9 | |
| 20260509131129 | 18 | 56 | 6.4 | 3.2 | 0.00 | 0.00 | 0.00 | 1011.8 | |
| 20260509130111 | 18 | 172 | 0.0 | 0.0 | 0.00 | 0.00 | 0.00 | 1011.4 | |
| 20260509125111 | 19 | 48 | 11.3 | 9.7 | 0.00 | 0.00 | 0.00 | 1011.3 | |
| 20260509124113 | 18 | 333 | 1.6 | 3.2 | 0.00 | 0.00 | 0.00 | 1011.2 | |
| 20260509123113 | 18 | 63 | 11.3 | 17.7 | 0.00 | 0.00 | 0.00 | 1011.0 | |
| 20260509122116 | 18 | 118 | 4.8 | 4.8 | 0.00 | 0.00 | 0.00 | 1011.3 | |
| 20260509121118 | 18 | 135 | 9.7 | 9.7 | 0.00 | 0.00 | 0.00 | 1011.9 | |
| 20260509120119 | 18 | 117 | 12.9 | 12.9 | 0.00 | 0.00 | 0.00 | 1012.2 | |
| 20260509115055 | 18 | 121 | 8.0 | 8.0 | 0.00 | 0.00 | 0.00 | 1012.6 | |
| 20260509114057 | 18 | 149 | 9.7 | 11.3 | 0.00 | 0.00 | 0.00 | 1012.7 | |
| 20260509113043 | 18 | 155 | 8.0 | 17.7 | 0.00 | 0.00 | 0.00 | 1012.9 | |
| 20260509112043 | 18 | 162 | 9.7 | 3.2 | 0.00 | 0.00 | 0.00 | 1012.9 | |
| 20260509111028 | 18 | 77 | 9.7 | 14.5 | 0.00 | 0.00 | 0.00 | 1012.9 | |
| 20260509110016 | 18 | 181 | 14.5 | 16.1 | 0.00 | 0.00 | 0.00 | 1012.8 | |
| 20260509105000 | 18 | 152 | 9.7 | 6.4 | 0.00 | 0.00 | 0.00 | 1012.9 | |
| 20260509103932 | 18 | 118 | 9.7 | 9.7 | 0.00 | 0.00 | 0.00 | 1012.9 | |
| 20260509102926 | 18 | 186 | 8.0 | 8.0 | 0.00 | 0.00 | 0.00 | 1013.1 | |
| 20260509101928 | 18 | 129 | 8.0 | 11.3 | 0.00 | 0.00 | 0.00 | 1013.0 | |
| 20260509100912 | 19 | 108 | 9.7 | 8.0 | 0.00 | 0.00 | 0.00 | 1012.8 | |
| 20260509095910 | 19 | 39 | 6.4 | 3.2 | 0.00 | 0.00 | 0.00 | 1013.1 | |
| 20260509094902 | 19 | 103 | 6.4 | 3.2 | 0.00 | 0.00 | 0.00 | 1012.9 | |
| 20260509093900 | 18 | 121 | 14.5 | 8.0 | 0.00 | 0.00 | 0.00 | 1012.9 | |
| 20260509092843 | 18 | 37 | 11.3 | 6.4 | 0.00 | 0.00 | 0.00 | 1012.0 |